{"data":{"norad_id":59511,"epoch":"2026-05-24T18:11:23.989920Z","epoch_age_seconds":99123,"freshness":"FRESH","line1":"1 59511U 24073A   26144.75791655 -.00001866  00000+0 -58306-4 0  9997","line2":"2 59511  43.0001 248.0577 0000691 219.3211 140.7590 15.27590634117815","mean_motion":15.27590634,"eccentricity":6.91e-5,"inclination_deg":43.0001,"raan_deg":248.0577,"arg_perigee_deg":219.3211,"mean_anomaly_deg":140.759,"bstar":-5.8306e-5,"rev_number":11781,"period_min":94.266092495563,"perigee_km":482.54314844384,"apogee_km":483.49135996178,"semimajor_km":6861.1542542028,"source":"CELESTRAK","updated_at":"2026-05-25T13:38:18.973828Z"}}